Regional Weather Roundup
Issued by NWS

Home | Current Version | Previous Version | Text Only | Print | Product List | Glossary On
Versions: 1 2 3 4 5 6 7 8 9 10 11 12 13 14 15 16 17 18 19 20 21 22 23 24 25 26 27 28 29 30 31 32 33 34 35 36 37 38 39 40 41 42 43 44 45 46 47 48 49 50
000
ASUS45 KREV 302210
RWRNV
NEVADA REGIONAL WEATHER ROUNDUP
NATIONAL WEATHER SERVICE RENO NV
300 PM PDT TUE JUN 30 2015

NOTE: "FAIR" INDICATES FEW OR NO CLOUDS BELOW 12,000 FEET WITH NO
SIGNIFICANT WEATHER AND/OR OBSTRUCTIONS TO VISIBILITY.

NVZ001-003-004-302300-
WESTERN NEVADA

CITY           SKY/WX    TMP DP  RH WIND       PRES   REMARKS
RENO           PTSUNNY   98  43  15 NW9       30.05F
CARSON CITY    FAIR      95  41  15 NW10      30.09F
MINDEN         FAIR      95  46  18 W7        30.09F
SLIDE MTN        N/A     72  48  43 SW10        N/A
PYRAMID LAKE     N/A     90 N/A N/A VRB7        N/A
FALLON         PTSUNNY  101  38  11 NW8       30.00F
LOVELOCK       SUNNY     99  44  15 S9        30.00F
HAWTHORNE      SUNNY     99  43  14 W6        30.04F
$$

NVZ002-CAZ072-073-302300-
NORTHERN AND CENTRAL SIERRA

CITY           SKY/WX    TMP DP  RH WIND       PRES   REMARKS
S. LAKE TAHOE  MOSUNNY   86  52  30 N8        30.23F
TRUCKEE        MOSUNNY   90  46  22 SW9       30.21F
SQUAW VLY 8000 NOT AVBL
SUSANVILLE     SUNNY     95  39  14 NE6       30.05F
BLUE CANYON    SUNNY     86  49  27 VRB6      30.20F
MAMMOTH LAKES  FAIR      73  52  46 NW10G20   30.32S
BRIDGEPORT     FAIR      87  42  20 W7        30.24F
$$

NVZ030-031-036-302300-
NORTHERN NEVADA

CITY           SKY/WX    TMP DP  RH WIND       PRES   REMARKS
ELKO           MOSUNNY   98  42  14 VRB3      30.06F
WINNEMUCCA     SUNNY    101  39  12 NW13G26   30.02F
WENDOVER       PTSUNNY  100  46  16 SE9       29.99F
$$

NVZ035-037-302300-
CENTRAL NEVADA

CITY           SKY/WX    TMP DP  RH WIND       PRES   REMARKS
ELY            LGT RAIN  83  50  31 MISG      30.21S
EUREKA           N/A     86  45  23 S12       30.18S
$$

NVZ013-014-302300-
SOUTH CENTRAL NEVADA

CITY           SKY/WX    TMP DP  RH WIND       PRES   REMARKS
TONOPAH        MOSUNNY   95  40  14 MISG      30.14F
$$

NVZ017-020-022-302300-
SOUTHERN NEVADA

CITY           SKY/WX    TMP DP  RH WIND       PRES   REMARKS
LAS VEGAS      MOSUNNY  111  46  11 S9        29.77F HX 106
N. LAS VEGAS   MOSUNNY  109  48  13 S12G18    29.81F HX 105
NELLIS AFB     MOSUNNY  108  50  14 S10       29.80S
HENDERSON      MOSUNNY  109  54  16 S12G20    29.85F HX 107
MERCURY        SUNNY    105  42  11 W10G18    29.92F
$$


USA.gov is the U.S. government's official web portal to all federal, state and local government web resources and services.